Flag for Canada Weather past 2 weeks in Red Deer, Alberta, Canada

Now
72 °F

Scattered clouds.


Feels Like: 77 °F
Forecast: 48 / 80 °F
Wind: 7 mph from East

Location: Red Deer

Current Time: Jul 30, 2015 at 8:02:33 PM

Latest Report: Jul 30, 2015 at 7:00 PM


Visibility: 15 mi

Pressure: 30.18 "Hg (27.33 "Hg at 857m altitude)

Humidity: 47%

Dew point: 50 °F

Location of Red DeerLocation

Historic Weather in Red Deer — Graph

°F

Red Deer temperature yesterday

Maximum temperature yesterday: 72 °F (at 2:00 PM)
Minimum temperature yesterday: 46 °F (at 5:00 AM)
Average temperature yesterday: 58 °F

Past Weeks' High & Low Weather Summary

 TemperatureHumidityPressure
High77 °F (Jul 20, 5:00 PM)100% (Jul 22, 5:00 AM)30.27 "Hg (Jul 22, 5:00 AM)
Low43 °F (Jul 23, 4:00 AM)39% (Jul 24, 4:00 PM)29.69 "Hg (Jul 21, 7:00 PM)
Average59 °F75%29.93 "Hg
* Reported Jul 15 7:04 PM — Jul 30 7:00 PM, Red Deer, Weather by CustomWeather, © 2015

Note: Actual official high and low records may vary slightly from our data, if they occured in-between our weather recording intervals... More about our weather records

Advertising

Red Deer weather history for previous 24 hours

 ConditionsComfort  
Time TempWeatherWind HumidityBarometerVisibility
7:00 PM
Thu, Jul 30
72 °FScattered clouds.7 mph47%30.18 "Hg15 mi
6:00 PM73 °FScattered clouds.8 mph41%30.18 "Hg15 mi
5:00 PM73 °FScattered clouds.6 mph44%30.19 "Hg15 mi
4:00 PM73 °FScattered clouds.5 mph41%30.19 "Hg15 mi
3:00 PM72 °FScattered clouds.2 mph41%30.21 "Hg15 mi
2:00 PM72 °FScattered clouds.5 mph47%30.22 "Hg15 mi
1:00 PM68 °FPassing clouds.2 mph46%30.24 "Hg15 mi
12:00 PM66 °FSunny.7 mph52%30.25 "Hg15 mi
11:00 AM64 °FSunny.7 mph60%30.25 "Hg15 mi
10:00 AM61 °FSunny.5 mph68%30.27 "Hg15 mi
9:00 AM59 °FSunny.5 mph77%30.26 "Hg15 mi
8:00 AM52 °FPassing clouds.3 mph88%30.26 "Hg15 mi
7:00 AM48 °FPartly sunny.3 mph94%30.26 "Hg15 mi
6:00 AM45 °FPassing clouds.7 mph100%30.26 "Hg15 mi
5:00 AM45 °FPassing clouds.3 mph93%30.27 "Hg15 mi
4:00 AM46 °FPassing clouds.5 mph93%30.22 "Hg15 mi
3:00 AM48 °FPassing clouds.6 mph94%30.22 "Hg15 mi
2:00 AM48 °FPassing clouds.6 mph94%30.21 "Hg15 mi
1:00 AM48 °FPassing clouds.5 mph100%30.20 "Hg15 mi
12:00 AM50 °FPassing clouds.5 mph94%30.19 "Hg15 mi
11:00 PM
Wed, Jul 29
52 °FPassing clouds.7 mph94%30.19 "Hg15 mi
10:00 PM52 °FPassing clouds.No wind88%30.19 "Hg15 mi
9:00 PM59 °FScattered clouds.3 mph77%30.17 "Hg15 mi
8:00 PM63 °FScattered clouds.7 mph68%30.15 "Hg15 mi
Weather by CustomWeather, © 2015

See weather overviewHow to use our weather pages